SCP
0 0 0 0 0 0 0 0 1 1 1 2 1 1 1 1 1 0 0 0 0 0 0 0 0 0 0 0 0 0 0 0 0 0 0 0 0 0 0 0 0 0 0
0 0 0 0 0 0 0 0 1 1 1 1 1 1 1 1 1 0 0 0 0 0 0 0 0 0 0 0 0 0 0 0 0 0 0 0 0 0 0 0 0 0 0
0 0 0 0 0 0 0 0 0 0 1 1 1 1 1 1 1 0 0 0 0 0 0 0 0 0 0 0 0 0 0 0 0 0 0 0 0 0 0 0 0 0 0
0 0 0 0 0 0 0 0 0 0 0 0 0 0 0 0 0 0 0 0 0 0 0 0 0 0 0 0 0 0 0 0 0 0 0 0 0 0 0 0 0 0 0
0 0 0 0 0 0 0 0 0 0 0 0 0 0 0 0 0 0 0 0 0 0 0 0 0 0 0 0 0 0 0 0 0 0 0 0 0 0 0 0 0 0 0
0 0 0 0 0 0 0 0 0 0 0 0 0 0 0 0 0 0 0 0 0 0 0 0 0 0 0 0 0 0 0 0 0 0 0 0 0 0 0 0 0 0 0
0 0 0 0 0 0 0 0 0 0 0 0 0 0 0 0 0 0 0 0 0 0 0 0 0 0 0 0 0 0 0 0 0 0 0 0 0 0 0 0 0 0 0
0 0 0 0 0 0 0 0 0 0 0 0 0 0 0 0 0 0 0 0 0 0 0 0 0 0 0 0 0 0 0 0 0 0 0 0 0 0 0 0 0 0 0
0 0 0 0 0 0 0 0 0 0 0 0 0 0 0 0 0 0 0 0 0 0 0 0 0 0 0 0 0 0 0 0 0 0 0 0 0 0 0 0 0 0 0
0 0 0 0 0 0 0 0 0 0 0 0 0 0 0 0 0 0 0 0 0 0 0 0 0 0 0 0 0 0 0 0 0 0 0 0 0 0 0 0 0 0 0
0 0 0 0 0 0 0 0 0 0 0 0 0 0 0 0 0 0 0 0 0 0 0 0 0 0 0 0 0 0 0 0 0 0 0 0 0 0 0 0 0 0 0
0 0 0 0 0 0 0 0 0 0 0 0 0 0 0 0 0 0 0 0 0 0 0 0 0 0 0 0 0 0 0 0 0 0 0 0 0 0 0 0 0 0 0
0 0 0 0 0 0 0 0 0 0 0 0 0 0 0 0 0 0 0 0 0 0 0 0 0 0 0 0 0 0 0 0 0 0 0 0 0 0 0 0 0 0 0
0 0 0 0 0 0 0 0 0 0 0 0 0 0 0 0 0 0 0 0 0 0 0 0 0 0 0 0 0 0 0 0 0 0 0 0 0 0 0 0 0 0 0
0 0 0 0 0 0 0 0 0 0 0 0 0 0 0 0 0 0 0 0 0 0 0 0 0 0 0 0 0 0 0 0 0 0 0 0 0 0 0 0 0 0 0
0 0 0 0 0 0 0 0 0 0 0 0 0 0 0 0 0 0 0 0 0 0 0 0 0 0 0 0 0 0 0 0 0 0 0 0 0 0 0 0 0 0 0
0 0 0 0 0 0 0 0 0 0 0 0 0 0 0 0 0 0 0 0 0 0 0 0 0 0 0 0 0 0 0 0 0 0 0 0 0 0 0 0 0 0 0
0 0 0 0 0 0 0 0 0 0 0 0 0 0 0 0 0 0 0 0 0 0 0 0 0 0 0 0 0 0 0 0 0 0 0 0 0 0 0 0 0 0 0
0 0 0 0 0 0 0 0 0 0 0 0 0 0 0 0 0 0 0 0 0 0 0 0 0 0 0 0 0 0 0 0 0 0 0 0 0 0 0 0 0 0 0
0 0 0 0 0 0 0 0 0 0 0 0 0 0 0 0 0 0 0 0 0 0 0 0 0 0 0 0 0 0 0 0 0 0 0 0 0 0 0 0 0 0 0
0 0 0 0 0 0 0 0 0 0 0 0 0 0 0 0 0 0 0 0 0 0 0 0 0 0 0 0 0 0 0 0 0 0 0 0 0 0 0 0 0 0 0
0 0 0 0 0 0 0 0 0 0 0 0 0 0 0 0 0 0 0 0 0 0 0 0 0 0 0 0 0 0 0 0 0 0 0 0 0 0 0 0 0 0 0
0 0 0 0 0 0 0 0 0 0 0 0 0 0 0 0 0 0 0 0 0 0 0 0 0 0 0 0 0 0 0 0 0 0 0 0 0 0 0 0 0 0 0
0 0 0 0 0 0 0 0 0 0 0 0 0 0 0 0 0 0 0 0 0 0 0 0 0 0 0 0 0 0 0 0 0 0 0 0 0 0 0 0 0 0 0
0 0 0 0 0 0 0 0 0 0 0 0 0 0 0 0 0 0 0 0 0 0 0 0 0 0 0 0 0 0 0 0 0 0 0 0 0 0 0 0 0 0 0
0 0 0 0 0 0 0 0 0 0 0 0 0 0 0 0 0 0 0 0 0 0 0 0 0 0 0 0 0 0 0 0 0 0 0 0 0 0 0 0 0 0 0
Wind_Speed
1 1 1 0 0 0 0 0 0 0 1 1 1 1 2 2 2 2 2 2 3 3 3 4 5 4 4 3 3 4 4 4 7 6 3 4 4 5 5 4 4 4 4
1 1 1 1 1 1 1 1 1 1 1 1 1 1 2 2 2 2 3 3 3 4 4 4 5 4 5 4 4 4 5 5 6 8 5 4 5 5 5 5 4 4 4
1 1 1 1 1 1 2 2 2 1 1 2 2 2 2 2 3 3 3 3 4 4 5 5 5 5 5 4 5 5 4 5 4 5 6 4 4 4 4 5 4 3 4
1 1 1 1 1 1 2 2 2 2 2 2 2 2 2 3 3 3 3 3 4 4 4 5 5 5 5 5 5 5 5 5 4 5 6 5 4 4 3 4 4 4 4
1 0 1 1 1 1 2 2 2 2 2 2 2 3 3 2 3 3 3 4 4 4 4 4 4 5 6 6 5 5 5 4 4 5 5 5 5 4 4 4 5 4 5
0 1 1 1 2 2 2 2 2 2 2 2 2 3 3 3 6 7 5 4 4 4 5 5 5 5 5 8 9 9 8 6 6 6 6 6 7 6 5 4 4 5 6
1 1 1 1 1 2 2 2 2 2 2 2 3 3 3 4 7 7 8 5 4 4 5 5 5 5 5 5 7 9 8 9 10 7 7 8 7 6 5 6 5 6 7
1 1 1 1 1 2 2 2 3 3 3 3 3 3 3 5 7 8 8 5 4 4 5 5 5 6 5 6 5 6 6 6 7 6 6 7 7 6 6 6 7 7 6
1 2 2 2 2 2 2 2 3 3 3 3 3 3 3 5 7 8 8 4 4 5 5 5 5 5 8 9 6 6 6 6 7 9 9 9 11 11 8 4 4 5 6
2 2 2 1 1 2 2 2 2 2 3 3 3 3 3 4 7 8 8 3 4 5 5 5 5 6 9 9 5 5 6 6 6 6 7 8 7 7 8 6 5 5 5
2 2 2 2 2 2 2 2 2 2 2 3 3 3 3 4 6 8 7 4 4 5 5 4 5 10 11 11 8 5 7 8 5 5 5 5 4 4 4 4 4 5 6
2 2 2 2 2 2 2 2 2 2 2 2 3 3 3 3 5 7 8 8 7 4 4 4 6 11 11 11 8 8 10 8 4 4 4 5 5 4 4 4 4 5 5
2 2 2 2 2 2 1 1 1 1 1 2 2 3 3 3 4 7 8 9 9 5 4 8 10 11 10 7 9 10 7 4 4 4 5 5 5 5 4 4 4 4 5
1 2 2 1 2 2 1 1 1 1 2 2 2 3 3 3 3 3 3 4 5 5 5 6 9 9 8 7 7 6 4 4 4 4 5 5 5 4 4 4 4 4 4
1 1 2 2 1 2 2 1 2 2 2 2 2 2 3 3 5 8 5 4 3 3 4 3 4 4 5 5 5 5 5 4 4 4 4 5 5 5 5 4 3 3 4
1 1 1 1 1 1 2 3 4 4 5 5 5 5 4 6 7 8 8 7 7 7 4 2 3 4 4 5 5 5 5 5 5 5 4 5 5 5 6 5 3 3 4
1 2 1 2 1 1 2 2 3 4 5 5 6 7 7 7 7 7 7 7 6 6 3 2 3 4 4 4 4 5 5 5 5 4 5 5 5 5 5 5 4 4 4
1 2 2 2 2 2 2 2 2 2 3 4 5 7 7 7 7 7 7 5 3 4 2 2 3 3 4 4 4 5 5 5 5 5 5 5 5 5 5 5 5 5 4
1 1 1 2 2 2 2 2 2 2 2 3 3 4 5 6 6 6 6 2 2 3 3 3 3 3 4 4 4 4 5 5 5 5 5 5 5 5 5 5 5 6 5
1 2 2 1 1 1 1 2 2 2 2 2 3 3 3 3 2 3 3 2 2 3 3 3 3 3 4 4 4 4 5 5 5 5 5 5 5 5 5 6 6 5 5
1 1 2 1 1 2 2 2 2 2 2 3 3 4 5 2 2 3 3 3 3 3 4 4 4 4 4 4 4 4 5 5 5 5 5 5 5 5 5 5 5 5 5
1 1 1 2 2 2 2 2 2 2 3 3 3 3 6 3 3 3 3 3 3 3 3 4 4 4 4 4 4 5 5 5 5 5 5 5 5 5 5 5 5 5 4
1 1 1 1 1 2 2 2 2 2 3 3 3 3 3 3 3 3 4 4 4 4 4 4 4 5 4 4 4 4 5 6 5 5 5 5 5 5 5 5 6 6 5
1 2 2 2 2 2 2 2 2 2 3 3 3 3 3 3 4 4 4 4 4 4 4 4 5 6 8 6 5 4 5 5 5 5 5 5 5 5 4 5 5 5 4
2 2 2 2 2 2 2 2 2 2 3 3 3 3 3 4 4 4 4 4 5 5 6 6 5 5 7 8 8 6 8 9 7 5 4 4 4 5 4 4 4 5 4
2 2 2 2 2 2 2 2 3 3 3 3 3 3 4 4 4 4 4 4 5 5 6 5 6 7 8 7 8 9 9 9 7 6 4 3 3 3 3 3 4 4 4
Wind_Direction
42 43 47 31 8 164 178 213 353 336 314 285 264 258 265 268 267 261 269 275 270 275 276 271 274 280 278 274 268 265 261 260 270 284 290 300 300 295 295 285 278 273 279
42 47 43 19 3 12 2 354 347 333 311 296 289 276 272 275 271 262 264 267 265 270 271 271 274 277 277 279 272 269 267 262 268 282 292 296 289 289 291 293 298 293 286
61 47 30 15 12 6 356 353 351 338 327 318 311 305 298 290 284 277 263 265 265 266 267 266 272 274 275 276 274 274 274 275 273 280 288 293 290 294 298 297 299 298 298
64 59 18 0 353 352 348 347 343 339 335 328 322 316 312 311 309 307 289 281 278 278 276 272 272 269 272 277 274 274 279 280 280 279 284 291 291 297 299 295 300 298 295
62 29 346 350 351 3 358 348 343 342 340 338 333 329 326 318 311 317 305 295 289 288 289 283 279 277 281 279 279 277 277 278 281 281 282 290 289 295 287 288 286 295 290
82 349 10 13 359 3 358 348 344 339 342 343 334 331 332 324 322 323 320 305 304 302 303 301 294 281 283 286 284 281 275 272 275 276 280 281 284 288 292 288 288 290 286
33 7 12 15 356 347 348 347 337 332 340 340 332 332 327 320 325 327 325 323 314 307 305 306 307 304 296 288 288 288 284 279 274 273 275 276 281 281 285 283 278 278 276
14 358 7 7 345 346 348 337 332 333 328 323 323 324 325 324 329 331 329 329 321 316 312 309 305 308 306 305 299 294 292 288 284 279 270 273 276 278 270 272 276 279 283
356 346 350 351 335 333 327 323 325 324 319 318 320 324 322 323 328 332 340 332 324 320 318 317 311 309 314 315 311 302 303 303 304 297 291 288 288 288 284 281 276 275 281
339 335 339 334 315 305 304 312 322 317 314 318 321 320 315 319 327 335 342 336 326 321 319 319 321 322 322 323 316 307 302 304 309 310 305 301 292 289 287 268 262 264 277
350 348 345 334 311 301 309 321 321 320 322 318 316 322 322 324 327 335 341 341 326 320 320 323 323 325 325 323 320 310 302 309 308 305 302 299 297 289 284 276 267 258 260
2 353 339 331 321 328 323 321 325 317 315 317 323 326 328 329 333 335 339 338 336 322 318 321 322 327 329 329 328 323 322 322 313 307 306 305 304 302 300 292 282 272 261
1 341 331 329 325 325 309 308 320 319 313 318 321 319 324 331 333 338 336 335 337 334 322 324 329 334 337 338 338 335 333 330 321 312 306 305 306 302 302 299 291 287 285
346 326 326 324 325 331 314 308 300 298 296 303 311 312 316 320 326 330 328 329 333 335 332 331 332 336 339 337 336 337 336 329 321 314 310 307 309 306 299 297 295 296 295
331 319 326 324 317 317 314 294 285 270 274 283 277 280 293 300 312 326 333 331 332 325 334 341 344 347 349 344 340 339 337 337 334 328 321 317 316 316 309 305 298 299 289
312 325 325 317 319 315 315 322 322 314 315 316 316 316 305 310 318 326 333 340 345 352 3 352 341 339 335 332 331 330 332 332 329 326 322 318 316 316 313 309 301 290 286
264 291 303 307 311 316 313 311 318 329 328 331 328 327 326 326 329 335 342 347 355 6 17 351 336 330 326 325 323 322 321 322 322 321 318 316 314 313 312 310 308 298 288
284 282 285 292 298 297 296 298 298 307 319 323 328 332 337 337 338 344 351 2 359 2 351 328 319 318 318 317 316 316 316 319 321 320 318 317 315 313 313 311 305 298 289
275 288 297 299 298 292 292 293 292 293 294 303 320 331 342 337 339 347 0 12 331 324 321 314 309 309 310 310 309 309 310 311 313 314 313 314 316 314 310 310 306 298 289
274 275 283 288 292 292 290 288 288 288 292 297 302 310 328 341 341 335 342 328 314 306 306 305 305 303 302 303 305 307 309 310 312 311 310 312 313 313 310 309 308 302 293
267 280 274 266 259 264 268 271 275 276 280 285 287 296 319 317 308 308 313 312 305 301 303 302 301 301 301 302 302 302 302 303 305 307 308 310 314 313 310 307 306 307 302
240 249 248 248 256 262 266 269 271 272 276 285 296 303 319 322 302 299 300 299 297 292 290 291 293 292 290 291 293 294 295 297 300 303 306 308 309 308 307 309 312 313 312
222 229 241 252 255 264 269 266 267 271 275 279 286 295 304 300 296 295 296 298 300 298 295 289 290 294 294 289 283 279 282 285 288 291 297 301 303 303 304 306 308 311 310
227 226 232 244 251 252 257 263 263 267 273 280 284 287 290 291 291 292 293 296 298 296 293 290 286 287 293 297 293 285 280 283 283 280 279 283 290 295 300 304 306 311 312
221 226 231 237 243 250 259 266 270 272 274 277 282 286 288 291 293 295 297 297 298 298 298 296 292 292 293 294 295 291 288 290 288 282 275 275 280 287 294 300 305 312 314
225 230 238 240 240 243 249 259 266 272 275 279 282 284 286 288 291 293 296 298 302 301 301 300 297 295 295 295 294 294 292 291 290 284 276 277 279 284 292 296 306 310 312